WB0RXX Weather Reports


time (UTC)temp
F
wind
direction
speed
knots
gust
knots
rain 1hr
in
rain 24hr
in
rain mn
in
humidity
%
barometer
mb
20260504151004 56 339 2.6 4.3 0.00 0.00 0.00 54 1002.3
20260504141003 56 314 5.2 7.8 0.00 0.00 0.00 58 1001.6
20260504082003 58 243 4.3 7.0 0.00 0.00 0.00 44 997.8
20260504081003 57 211 4.3 4.3 0.00 0.00 0.00 45 998.0
20260504050006 56 214 0.9 1.7 0.00 0.00 0.00 41 1002.0
20260504045004 57 240 0.0 1.7 0.00 0.00 0.00 41 1002.1
20260504044004 57 221 0.9 1.7 0.00 0.00 0.00 40 1002.2
20260504043003 57 217 0.9 2.6 0.00 0.00 0.00 41 1002.4
20260504042003 57 205 0.0 1.7 0.00 0.00 0.00 41 1002.6
20260504041004 57 224 0.9 3.5 0.00 0.00 0.00 41 1002.8
20260504040005 58 211 0.9 1.7 0.00 0.00 0.00 40 1002.9
20260504035003 58 246 0.9 3.5 0.00 0.00 0.00 40 1003.1
20260504034004 58 223 1.7 3.5 0.00 0.00 0.00 41 1003.4
20260504033004 58 267 0.9 1.7 0.00 0.00 0.00 42 1003.6
20260504032004 58 275 0.0 0.0 0.00 0.00 0.00 43 1003.8
20260504031005 58 276 0.0 1.7 0.00 0.00 0.00 42 1004.0
20260504030004 59 276 0.0 0.0 0.00 0.00 0.00 41 1004.0
20260504025005 59 276 0.0 0.0 0.00 0.00 0.00 40 1004.2
20260504024004 60 276 0.0 0.0 0.00 0.00 0.00 36 1004.3
20260504023004 61 276 0.0 0.0 0.00 0.00 0.00 36 1004.3
20260504022003 63 276 0.0 0.0 0.00 0.00 0.00 34 1004.4
20260504021004 64 276 0.0 0.0 0.00 0.00 0.00 33 1004.5
20260504020004 65 276 0.0 0.0 0.00 0.00 0.00 31 1004.5
20260504015003 66 276 0.0 0.0 0.00 0.00 0.00 30 1004.6
20260504014003 66 276 0.0 0.9 0.00 0.00 0.00 29 1004.8
20260504013003 67 315 0.0 0.0 0.00 0.00 0.00 29 1004.9
20260504012003 68 279 0.9 4.3 0.00 0.00 0.00 28 1004.9
20260504011003 68 281 0.9 2.6 0.00 0.00 0.00 28 1004.9
20260504010004 69 250 0.0 0.0 0.00 0.00 0.00 28 1005.0
20260504005004 69 292 0.0 0.9 0.00 0.00 0.00 27 1005.1
20260504004004 70 300 0.9 2.6 0.00 0.00 0.00 27 1005.2
20260504003004 70 253 1.7 5.2 0.00 0.00 0.00 27 1005.4
20260504002004 70 267 2.6 1.7 0.00 0.00 0.00 26 1005.2
20260504001003 71 250 0.0 0.0 0.00 0.00 0.00 25 1005.3
20260504000004 71 294 1.7 7.8 0.00 0.00 0.00 25 1005.4
20260503235003 71 263 0.9 0.0 0.00 0.00 0.00 26 1005.4
20260503234004 71 255 1.7 2.6 0.00 0.00 0.00 26 1005.5
20260503233003 71 223 2.6 6.1 0.00 0.00 0.00 26 1005.7
20260503232003 72 237 0.9 3.5 0.00 0.00 0.00 25 1005.7
20260503231003 72 298 1.7 8.7 0.00 0.00 0.00 27 1005.9
20260503230006 73 351 1.7 2.6 0.00 0.00 0.00 26 1006.0
20260503225005 73 280 0.9 2.6 0.00 0.00 0.00 24 1006.3
20260503224005 73 251 2.6 6.1 0.00 0.00 0.00 26 1006.2
20260503223018 73 234 0.0 1.7 0.00 0.00 0.00 27 1006.3
20260503222004 73 288 0.9 0.0 0.00 0.00 0.00 28 1006.4
20260503221003 72 338 0.9 2.6 0.00 0.00 0.00 27 1006.6
20260503220003 73 355 0.9 1.7 0.00 0.00 0.00 28 1006.7
20260503215019 72 316 0.9 3.5 0.00 0.00 0.00 27 1006.7
20260503214018 72 259 0.9 2.6 0.00 0.00 0.00 27 1006.9
20260503213005 72 299 1.7 6.1 0.00 0.00 0.00 28 1007.1
20260503212003 71 289 2.6 7.0 0.00 0.00 0.00 28 1007.2
20260503211003 71 19 1.7 2.6 0.00 0.00 0.00 29 1007.6
20260503210004 71 312 3.5 8.7 0.00 0.00 0.00 28 1007.7
20260503205003 71 323 3.5 9.6 0.00 0.00 0.00 31 1007.9
20260503204003 71 288 2.6 5.2 0.00 0.00 0.00 30 1008.0
20260503203019 70 275 2.6 4.3 0.00 0.00 0.00 31 1008.1
20260503202005 70 348 3.5 7.0 0.00 0.00 0.00 33 1008.3
20260503201004 70 318 5.2 9.6 0.00 0.00 0.00 33 1008.6
20260503200004 68 298 1.7 7.8 0.00 0.00 0.00 33 1008.8
20260503195004 68 293 2.6 5.2 0.00 0.00 0.00 34 1008.9
20260503194004 68 292 3.5 4.3 0.00 0.00 0.00 36 1008.9
20260503193004 68 253 4.3 7.8 0.00 0.00 0.00 35 1008.9
20260503192004 68 337 4.3 9.6 0.00 0.00 0.00 36 1009.1
20260503191004 68 305 2.6 6.1 0.00 0.00 0.00 36 1009.2
20260503190020 68 304 3.5 7.8 0.00 0.00 0.00 37 1009.7
20260503185004 68 304 4.3 7.8 0.00 0.00 0.00 38 1009.7
20260503184004 67 275 3.5 8.7 0.00 0.00 0.00 36 1009.9
20260503183005 67 323 4.3 9.6 0.00 0.00 0.00 37 1009.8
20260503182004 67 303 3.5 7.0 0.00 0.00 0.00 37 1010.0
20260503181003 67 350 1.7 7.0 0.00 0.00 0.00 39 1010.0
20260503180004 67 307 4.3 6.1 0.00 0.00 0.00 38 1010.1
20260503175003 66 306 2.6 6.1 0.00 0.00 0.00 39 1010.2
20260503174004 65 309 4.3 12.2 0.00 0.00 0.00 38 1010.3
20260503173004 65 346 5.2 10.4 0.00 0.00 0.00 39 1010.3
20260503172003 66 298 5.2 9.6 0.00 0.00 0.00 39 1010.4
20260503171005 65 290 2.6 7.8 0.00 0.00 0.00 41 1010.6